FREGAT DEB, 45829

Orbit data source: Space-Track

FREGAT DEB, 45829 is space debris in LEO originally from a launch on Mon, 18 Jul 2011 UTC launched from the Tyuratam Missile And Space Complex (TTMTR). Debris objects in space refer to the collection of defunct objects orbiting the Earth. Examples of debris include non-operational satellites, rocket bodies, and fragments generated from explosions, collisions, or faulty payload assembly.

Loading next visibility...
Identifier
45829, 2011-037BP
Orbit
LEO
Country
Flag of CISCIS
Related business
Manufacturer
Lavochkin
Mission
Spacecraft
Bus & Motor
Unknown
Mass
Unknown
Launch date (UTC)
2011-07-18 (14 years ago)
Launch vehicle
Unknown
Launch site
Tyuratam Missile And Space Complex (TTMTR)
Object type
Payload
Rocket body
Debris
Shape & HBR
Unknown shape, 0.1 m
Radar Cross Section
Small (<0.1 m²)

Expand to show TLE details & history
Last TLE update: 2 days ago

TLE from 2 days ago
0 FREGAT DEB
1 45829U 11037BP  25300.21224356  .00044531  00000-0  31202-2 0  9992
2 45829  51.4201 244.3492 1334298 271.3476  73.5344 12.67856394233196
Epoch: 2025-10-27T05:05Z
TLE epoch observation values (Epoch: 2025-10-27T05:05:37.843Z)
Latitude
-0.00006°
Longitude
132.12415°
Altitude
1,230.726 km
Speed
7.315 km/s
True Right ascension
16h 17m 23s
True Declination
0° 00' 00"
Sunlit
Object was in daylight at epoch
Visualization orbit readout
Latitude
Unknown
Longitude
Unknown
Altitude
Unknown
Speed
Unknown
Apparent Right ascension
Unknown
Apparent Declination
Unknown
Sunlit
N/A
Visualization observer readout
Local Sidereal Time
04:05:31
Azimuth
Unknown
Elevation
Unknown
Doppler factor
Unknown
Orbital elements
Apogee altitude
2,427.832 km
Perigee altitude
354.517 km
Semi-major axis
7,769.311 km
Eccentricity
0.13343
Inclination
51.4201°
RAAN
244.3492°
Arg. of periapsis
271.3476°
True anomaly
88.74181°
Mean anomaly
73.5344°
Eccentric anomaly
81.08705°
Mean motion
3.16934 °/min
Orbital period
113.59 mins
BSTAR
0.0031202
Loading maneuver chart data...
Computing Atmospheric mass density...
Loading historical data...
Loading historical data...
Loading historical data...
Loading historical data...
Loading historical data...
Loading historical data...
Loading historical data...

Documentation

Showing up to 5 results
|